Regional Weather Roundup
Issued by NWS

Home | Current Version | Previous Version | Text Only | Print | Product List | Glossary Off
Versions: 1 2 3 4 5 6 7 8 9 10 11 12 13 14 15 16 17 18 19 20 21 22 23 24 25 26 27 28 29 30 31 32 33 34 35 36 37 38 39 40 41 42 43 44 45 46 47 48 49 50

218
ASUS43 KMPX 262210
RWRMN
WEATHER ROUNDUP FOR MINNESOTA
NATIONAL WEATHER SERVICE TWIN CITIES/CHANHASSEN MN
500 PM CDT THU MAY 26 2016


NOTE: "FAIR" INDICATES FEW OR NO CLOUDS BELOW 12,000 FEET WITH NO
SIGNIFICANT WEATHER AND/OR OBSTRUCTIONS TO VISIBILITY. N/A MEANS
CURRENT SKY AND/OR WEATHER CONDITIONS ARE NOT AVAILABLE.

MNZ060>063-068>070-262300-
   Twin Cities Metro

CITY           SKY/WX    TMP DP  RH WIND       PRES   REMARKS
TWIN CITIES    MOSUNNY   80  50  34 W10       29.77F
ST PAUL        SUNNY     79  52  38 W9G20     29.77F
CRYSTAL        SUNNY     79  49  34 NW13      29.76F
BLAINE         MOSUNNY   81  54  39 W12G18    29.78F
EDEN PRAIRIE   SUNNY     80  48  32 W10G20    29.77F
SOUTH ST PAUL  SUNNY     80  48  33 W10       29.77F
LAKE ELMO      FAIR      79  54  41 W9        29.79F
$$
MNZ001>005-007-008-013>017-022>024-027-028-262300-
   Northwest Minnesota

CITY           SKY/WX    TMP DP  RH WIND       PRES   REMARKS
BEMIDJI        MOSUNNY   73  53  49 W18       29.77S
HALLOCK        MOSUNNY   70  57  64 W14       29.71S
ROSEAU         SUNNY     70  57  64 SW16G22   29.72S
WARROAD        MOSUNNY   70  57  64 W18       29.72S
THIEF RVR FALL PTSUNNY   68  55  64 SW14G21   29.76F
CROOKSTON      MOSUNNY   72  57  60 W10G18    29.75F
FOSSTON        MOSUNNY   68  55  64 W17G23    29.78S
DETROIT LAKES  SUNNY     70  52  52 W9G17     29.81F
MOORHEAD       MOSUNNY   73  55  53 W14G23    29.77F
PARK RAPIDS    MOSUNNY   74  49  41 W17G24    29.79S
MAHNOMEN       FAIR      69  56  62 W14G20    29.79S
$$
MNZ006-009>011-018-025>026-262300-
   North Central Minnesota

CITY           SKY/WX    TMP DP  RH WIND       PRES   REMARKS
BAUDETTE       PTSUNNY   70  53  54 W13G21    29.73R
FLAG ISLAND    PTSUNNY   66  55  68 W10G21    29.70S
INTL FALLS     PTSUNNY   74  50  42 SW9G17    29.73S
WASKISH        MOSUNNY   70  57  64 W10       29.75S
BIG FORK       MOSUNNY   73  54  49 W7        29.75S
LONGVILLE      SUNNY     73  54  49 SW10G17   29.78R
GRAND RAPIDS   MOSUNNY   76  51  41 S8        29.77S
CRANE LAKE     MOSUNNY   70  54  56 S6        29.77S
ORR            MOSUNNY   72  52  49 S6        29.73F
COOK           SUNNY     72  54  53 S3        29.76F
WALKER         FAIR      72  51  48 W13G24    29.78S
$$
MNZ012-019>021-037-262300-
   Northeast Minnesota

CITY           SKY/WX    TMP DP  RH WIND       PRES   REMARKS
DULUTH         MOSUNNY   60  51  72 SE8       29.78F
ELY            MOSUNNY   72  54  53 W14       29.77S
HIBBING        PTSUNNY   73  56  54 VRB5      29.76F
EVELETH        SUNNY     72  54  53 W3        29.78F
DULUTH HARBOR  CLOUDY    46  45  93 NE7       29.82F FOG
TWO HARBORS      N/A     63  55  77 SE6       29.78F
SILVER BAY     PTSUNNY   63  57  82 NE2       29.78F
GRAND MARAIS     N/A     46  43  89 SW8       29.82R
G MARAIS ARPRT CLOUDY    59  52  77 SW7       29.83S
$$
MNZ029>031-032-039>041-046>048-054>057-064-262300-
   West Central Minnesota

CITY           SKY/WX    TMP DP  RH WIND       PRES   REMARKS
FERGUS FALLS   MOSUNNY   75  48  38 W17       29.74F
WHEATON        SUNNY     81  52  36 W14       29.79F
MORRIS         CLOUDY    79  46  31 W8G22     29.77F
ALEXANDRIA     MOSUNNY   77  45  32 W12       29.80F
ELBOW LAKE     FAIR      74  50  42 W10G17    29.79F
WADENA         MOSUNNY   72  50  46 NW12G21   29.79F
GLENWOOD       PTSUNNY   77  45  31 W12G21    29.80F
APPLETON       PTSUNNY   81  45  28 W13G18    29.75F
BENSON         PTSUNNY   81  39  22 NW13G20   29.79F
ORTONVILLE     MOSUNNY   79  46  31 W7        29.76F
MADISON        MOSUNNY   77  45  31 W9        29.77F
WILLMAR        FAIR      81  46  30 NW10G23   29.76F
$$
MNZ033>034-036-042>043-049>051-058-059-262300-
   Central Minnesota

CITY           SKY/WX    TMP DP  RH WIND       PRES   REMARKS
ST CLOUD       SUNNY     80  47  31 W12G21    29.78F
SAUK CENTRE    FAIR      75  46  34 W9G17     29.80S
PAYNESVILLE    MOSUNNY   80  41  25 NW13G22   29.77F
AITKIN         SUNNY     79  43  27 W12G17    29.76F
PINE RIVER     MOSUNNY   72  54  53 W7G16     29.82F
BRAINERD       CLOUDY    75  45  34 W17G23    29.78F
STAPLES        CLOUDY    72  46  40 W12G18    29.79F
LONG PRAIRIE   FAIR      73  48  40 W6        29.81S
LITTLE FALLS   MOSUNNY   77  43  29 W9        29.80S
LITCHFIELD     SUNNY     81  46  30 NW10G16   29.76F
BUFFALO        SUNNY     78  47  34 W9        29.77F
MAPLE LAKE     SUNNY     78  52  40 W6        29.78F
HUTCHINSON     SUNNY     80  52  37 W12       29.78F
$$
MNZ037-044-045-052-053-262300-
   East Central Minnesota

CITY           SKY/WX    TMP DP  RH WIND       PRES   REMARKS
PRINCETON      SUNNY     81  48  32 W12G17    29.78F
MORA           SUNNY     75  50  41 W9        29.79S
CAMBRIDGE        N/A     81  57  44 W10       29.76F
RUSH CITY      SUNNY     78  51  38 W9        29.78F
MOOSE LAKE     SUNNY     77  52  41 W9        29.75F
HINCKLEY       FAIR      77  54  44 W12       29.77S
CLOQUET        MOSUNNY   68  55  64 E10       29.77F
MCGREGOR       SUNNY     75  48  38 W10       29.77F
$$
MNZ071>073-080-081-089-090-097-098-262300-
   Southwest Minnesota

CITY           SKY/WX    TMP DP  RH WIND       PRES   REMARKS
MONTEVIDEO     PTSUNNY   82  46  28 N9        29.78F
GRANITE FALLS  MOSUNNY   83  48  29 W6G18     29.79F
CANBY          MOSUNNY   80  52  37 SW8       29.80F
MARSHALL       SUNNY     79  50  36 W10       29.78F
REDWOOD FALLS  CLOUDY    81  46  29 W8        29.77F
OLIVIA         CLOUDY    70  41  35 W9        29.77F
PIPESTONE      MOSUNNY   73  46  38 CALM      29.82S
WINDOM         CLOUDY    79  48  34 CALM      29.80F
JACKSON        MOSUNNY   77  45  31 CALM      29.83F
TRACY          CLOUDY    78  50  37 NW5       29.80F
SLAYTON        CLOUDY    74  48  39 NW6       29.82F
$$
MNZ065>067-074>077-082>085-091>093-262300-
   South Central Minnesota

CITY           SKY/WX    TMP DP  RH WIND       PRES   REMARKS
MANKATO        SUNNY     79  50  36 W7        29.81S
NEW ULM        MOSUNNY   79  48  34 SE8       29.78S
ST JAMES       SUNNY     73  46  38 CALM      29.81S
FAIRMONT       MOSUNNY   79  37  22 SW3       29.81F
GLENCOE        SUNNY     79  54  41 NW9       29.77F
FARIBAULT      SUNNY     79  54  41 SW7       29.81F
OWATONNA       SUNNY     79  52  38 W7        29.81F
WASECA         SUNNY     77  50  38 W7        29.82F
ALBERT LEA     SUNNY     79  52  38 CALM      29.82R
$$
MNZ078>079-086>088-094>096-262300-
   Southeast Minnesota

CITY           SKY/WX    TMP DP  RH WIND       PRES   REMARKS
ROCHESTER      SUNNY     77  58  51 W12       29.84S
RED WING       SUNNY     82  50  32 NW9       29.76F
STANTON        SUNNY     79  53  40 W9G17     29.79F
DODGE CENTER   SUNNY     81  48  32 W10       29.82S
WINONA         MOSUNNY   81  54  39 W5        29.78F
AUSTIN         SUNNY     79  54  41 W6        29.83R
PRESTON        SUNNY     77  56  47 W7        29.84R
$$
ABBREVIATIONS USED IN REMARKS
   TC - TEMPERATURES IN CELSIUS
  WCI - WIND CHILL INDEX
   HX - HEAT INDEX
  VSB - VISIBILITY
$$




USA.gov is the U.S. government's official web portal to all federal, state and local government web resources and services.